Wind_Speed
37 38 36 39 41 41 41 40 42 42 43 42 44 42 42 41 39 36 31 30 26 27 29 30 30 32 33 33 35 39 42 45 48 52 57 61 65 69 73 76 81 85 87 89 92
38 39 39 42 44 44 43 44 43 44 44 43 43 43 41 40 41 39 36 33 30 29 30 32 32 33 35 37 39 42 45 48 51 54 57 60 63 66 71 76 81 85 88 91 95
43 41 44 44 47 47 47 46 44 42 42 42 42 43 42 40 42 42 40 38 36 34 35 33 34 35 36 38 41 43 45 49 51 54 57 61 66 69 74 79 83 88 92 96 98
47 45 45 48 49 49 48 47 47 48 44 43 44 43 42 40 40 43 43 43 42 39 39 39 38 37 37 40 43 46 49 52 54 57 59 64 70 76 80 85 89 95 100 105 108
51 51 52 50 53 51 48 49 47 46 47 44 45 45 44 42 40 43 44 44 45 45 44 43 43 44 44 45 45 47 51 53 55 60 63 70 74 78 81 86 90 96 102 108 113
58 58 58 56 56 52 49 50 48 48 45 47 47 45 45 43 41 42 45 46 47 47 49 48 49 46 46 48 47 49 52 56 60 63 69 72 79 77 79 86 93 100 107 113 119
61 61 62 58 59 53 52 49 49 46 46 48 46 45 44 47 43 43 46 47 49 48 51 50 50 49 50 51 49 52 55 59 61 69 72 76 79 78 84 85 89 94 96 102 108
62 62 61 60 59 54 52 49 48 48 49 46 48 48 45 47 45 43 45 48 50 50 52 54 53 51 53 56 53 53 56 61 69 72 80 77 78 80 86 89 84 71 69 77 87
64 63 62 60 59 53 48 51 53 53 50 47 48 48 47 47 47 46 47 48 50 51 53 56 56 54 57 58 53 54 58 67 72 76 79 75 78 78 83 86 78 71 58 49 62
67 65 59 59 54 52 54 56 55 54 52 50 50 48 49 45 46 45 48 49 49 53 55 57 56 55 56 60 54 54 60 72 75 77 76 76 74 74 83 87 86 76 59 50 46
67 65 64 63 64 64 59 61 58 59 54 52 49 49 49 47 46 46 47 49 50 54 56 57 59 58 56 59 53 58 67 72 80 75 73 76 66 73 79 86 84 68 57 48 45
73 69 69 70 71 69 67 63 59 58 53 48 49 48 47 48 48 46 46 47 49 52 56 58 58 58 58 57 55 60 69 76 81 73 69 67 65 67 69 78 77 68 52 43 40
81 78 77 76 75 75 69 67 56 51 46 49 47 46 47 45 46 45 45 46 49 52 56 57 58 59 60 54 56 65 72 79 75 69 69 60 61 60 60 64 69 60 51 36 35
88 83 81 77 75 69 67 59 51 48 43 48 46 46 47 45 45 45 45 46 49 53 56 58 60 58 58 52 56 64 73 78 71 68 67 57 56 54 52 49 58 49 44 33 27
82 80 77 72 69 62 56 54 52 51 45 46 47 46 46 46 43 46 46 46 49 52 55 57 57 56 57 52 58 65 73 73 66 63 63 53 50 53 52 49 50 43 36 29 25
77 74 73 71 67 63 59 57 57 55 51 46 46 46 46 46 46 45 45 48 50 53 51 54 54 53 54 51 59 65 71 68 62 59 57 53 50 51 54 52 46 41 36 28 21
84 83 80 76 75 71 66 62 59 56 53 49 47 47 47 45 45 44 45 48 49 50 50 52 52 53 50 50 60 67 70 63 55 56 53 50 45 52 57 56 53 40 34 28 19
87 85 83 81 78 78 75 69 63 59 56 53 50 49 49 46 44 44 45 48 49 48 47 49 48 51 45 50 58 66 68 56 51 52 51 51 49 50 56 58 50 44 32 26 20
82 77 74 73 72 74 75 74 67 64 61 57 53 52 50 48 46 44 45 47 47 45 45 46 48 45 43 51 58 62 59 50 44 46 47 49 48 50 54 59 58 47 34 25 19
71 75 75 73 71 69 69 71 70 69 66 63 57 54 52 48 46 44 46 47 46 43 43 45 46 42 43 50 57 61 56 49 43 38 44 45 47 50 55 57 56 48 32 24 16
50 53 57 65 68 69 69 66 67 68 67 67 61 57 55 51 46 44 45 45 43 39 41 43 43 39 41 49 52 57 55 47 42 37 40 41 44 49 54 57 56 45 34 24 15
36 36 43 48 55 62 66 66 63 63 65 62 58 55 52 49 46 44 42 41 38 38 38 38 39 40 42 49 53 59 56 43 37 34 33 39 41 45 52 58 58 48 34 27 18
33 33 29 33 43 52 59 62 63 62 62 58 54 51 48 46 43 40 40 35 33 34 33 37 36 38 42 48 52 59 49 40 35 32 31 32 36 41 47 55 58 52 38 34 25
33 34 30 27 31 42 52 59 60 60 59 53 51 49 46 44 39 39 37 32 31 32 32 35 33 36 39 42 46 55 43 37 32 29 29 31 34 37 42 49 55 57 50 41 35
37 33 30 28 25 33 43 53 57 58 57 51 49 46 42 42 37 35 33 30 29 30 31 31 32 35 38 41 45 53 45 35 30 27 28 28 28 31 37 42 48 53 58 46 36
42 36 35 34 30 24 36 46 53 57 56 50 48 42 41 39 34 32 31 28 28 27 28 29 29 35 37 38 43 49 47 33 30 23 25 28 27 27 31 35 40 47 52 55 43
47 43 39 39 35 30 27 36 43 48 50 49 46 43 43 38 34 31 28 28 25 28 26 27 26 33 35 36 40 49 47 33 26 22 22 24 26 28 28 26 31 37 42 48 46
Wind_Direction
306 309 311 315 317 318 318 318 322 325 326 328 329 331 332 334 332 336 328 319 308 305 301 297 284 281 276 275 277 276 273 269 266 265 265 264 263 262 260 257 255 251 249 246 245
300 304 306 311 314 315 314 316 318 320 324 326 325 326 328 330 330 331 332 324 323 318 310 303 300 294 286 283 281 280 279 277 274 272 273 273 273 271 268 265 263 259 254 249 247
297 303 306 307 310 309 313 314 315 316 321 322 322 321 323 325 326 326 328 328 323 316 317 317 309 297 295 293 291 289 287 284 283 281 282 281 278 276 273 270 267 263 259 254 249
294 297 304 305 306 306 307 309 311 312 316 316 317 319 319 321 320 321 321 323 324 322 318 317 313 314 311 306 299 295 291 291 290 291 289 287 284 282 277 272 269 265 262 259 254
291 291 295 298 302 302 301 304 307 307 311 311 313 314 314 314 317 317 318 318 321 323 320 318 316 316 314 311 305 300 298 296 296 296 295 294 291 286 282 279 274 269 266 262 260
287 287 290 294 296 296 295 300 302 302 307 309 309 309 309 309 311 312 314 314 317 321 323 320 318 316 316 316 311 305 303 304 304 305 304 299 300 292 286 277 271 266 262 261 259
284 285 286 290 292 292 292 294 298 298 302 305 306 306 303 304 309 308 311 313 315 318 321 321 320 318 319 319 313 310 308 308 309 312 311 309 303 301 295 286 277 272 268 263 259
281 283 283 287 288 289 292 294 296 297 299 300 304 302 298 302 304 307 307 310 313 314 317 320 319 318 319 320 317 314 312 313 316 320 317 312 309 307 302 296 292 288 279 262 256
281 281 283 284 286 285 288 294 295 296 298 297 299 299 297 299 301 302 304 308 310 311 314 318 321 318 318 322 319 318 319 317 320 322 317 315 314 309 305 303 303 311 306 278 254
279 282 283 283 280 282 284 288 292 292 293 293 294 297 295 295 301 301 301 305 307 310 311 316 320 318 321 322 320 319 321 322 325 324 319 319 317 313 309 310 314 316 309 294 274
279 277 278 279 280 282 283 285 287 287 288 290 290 294 293 291 297 300 301 302 305 308 311 313 317 319 320 322 323 324 325 326 327 325 323 322 322 319 314 314 319 319 308 296 283
277 276 277 278 280 282 283 280 283 284 284 284 287 288 288 291 293 297 300 303 305 308 309 313 317 319 322 324 326 326 327 327 328 325 326 324 326 325 322 318 319 318 310 298 283
277 275 274 276 277 280 280 280 279 280 276 283 283 285 288 289 292 297 300 303 306 306 308 312 316 318 323 325 330 328 329 328 328 326 328 324 323 329 331 325 318 316 315 304 288
276 274 273 274 276 276 279 276 275 275 275 278 280 283 286 286 291 295 299 302 305 306 307 311 316 320 325 326 331 332 329 329 328 328 328 327 332 344 344 335 325 318 316 312 294
274 273 271 273 273 271 272 271 272 275 276 275 277 280 283 286 291 294 297 303 304 306 308 310 315 320 326 330 333 333 330 331 329 331 330 328 339 349 342 346 330 328 324 321 312
273 273 273 271 270 270 269 269 268 270 272 272 275 279 280 285 290 295 297 300 302 306 310 315 318 321 327 333 335 333 333 332 329 330 330 330 338 350 1 359 350 340 338 336 327
269 269 270 270 269 270 268 267 267 270 270 268 271 275 277 282 287 291 296 299 301 305 311 316 319 322 327 336 335 333 332 332 329 329 335 337 349 359 6 5 1 354 350 346 343
269 268 267 265 266 267 266 264 264 265 267 267 270 272 275 280 285 287 291 296 301 303 309 315 321 324 329 335 337 334 333 332 332 334 340 342 342 359 4 10 5 1 357 356 358
272 268 264 263 261 261 260 260 260 260 263 264 266 270 272 277 281 283 287 292 299 302 309 314 320 326 333 336 337 338 339 333 336 337 335 344 350 1 7 12 11 5 3 3 1
271 268 263 260 258 258 257 256 256 256 258 260 262 265 268 273 276 277 283 289 296 298 308 313 320 328 335 337 338 340 339 334 336 345 343 347 355 4 9 16 14 11 10 11 11
276 266 261 257 253 249 250 253 252 253 254 257 257 260 264 269 271 273 280 287 292 297 308 312 319 328 336 337 337 339 335 334 339 347 346 351 359 4 11 17 17 15 13 20 25
282 278 267 257 248 246 245 246 248 249 252 253 254 256 260 264 265 269 276 284 290 296 306 314 322 330 334 336 342 344 337 336 337 350 353 352 1 5 10 14 19 19 26 32 39
276 282 284 267 251 243 240 242 243 245 248 250 252 253 257 258 260 265 275 282 287 298 305 315 322 328 332 336 344 346 340 336 339 354 356 354 4 8 11 13 19 29 35 36 46
267 274 280 286 258 245 239 239 239 242 245 247 247 250 252 253 256 262 270 278 283 297 303 314 321 326 331 339 349 350 345 340 342 354 2 0 1 12 13 15 23 32 32 49 58
261 265 272 274 277 251 241 238 238 238 241 241 243 245 246 248 253 260 266 273 281 292 301 311 319 323 331 339 347 354 351 344 342 360 11 10 4 13 16 16 22 31 35 42 53
258 260 260 264 268 266 246 244 240 239 240 237 238 236 239 246 250 254 260 268 279 285 302 308 316 321 333 339 349 354 354 351 352 1 20 19 12 14 25 16 21 31 36 41 47
255 254 254 256 260 260 259 247 244 243 240 237 234 229 234 238 244 247 252 261 268 283 295 308 313 321 331 337 349 350 359 355 358 7 23 30 24 23 33 22 20 33 40 45 48
Height
10733 10730 10728 10725 10723 10721 10717 10713 10709 10706 10701 10697 10692 10688 10684 10680 10675 10672 10669 10665 10661 10656 10653 10650 10647 10644 10642 10640 10638 10636 10633 10630 10628 10625 10621 10616 10613 10610 10608 10605 10601 10598 10597 10601 10603
10727 10724 10721 10717 10715 10713 10711 10707 10703 10699 10694 10691 10687 10682 10678 10674 10670 10665 10661 10658 10654 10651 10647 10643 10639 10636 10633 10630 10628 10624 10620 10617 10613 10610 10606 10602 10597 10593 10588 10583 10577 10571 10570 10573 10574
10720 10717 10714 10711 10708 10705 10703 10700 10697 10693 10688 10684 10681 10676 10672 10668 10663 10659 10655 10651 10647 10644 10640 10636 10632 10628 10624 10620 10616 10612 10607 10601 10597 10595 10590 10584 10576 10569 10563 10556 10549 10541 10536 10532 10536
10711 10709 10707 10705 10701 10698 10695 10692 10690 10686 10682 10678 10674 10669 10666 10662 10657 10652 10648 10644 10639 10636 10632 10628 10624 10619 10614 10610 10604 10598 10591 10585 10581 10576 10570 10562 10553 10545 10536 10527 10519 10512 10505 10497 10492
10700 10699 10698 10697 10695 10690 10686 10684 10681 10679 10674 10670 10666 10662 10658 10655 10651 10645 10641 10636 10632 10628 10623 10618 10613 10608 10603 10598 10591 10583 10576 10570 10565 10557 10549 10537 10526 10515 10505 10494 10487 10478 10470 10463 10455
10689 10688 10687 10686 10685 10683 10679 10674 10672 10670 10667 10663 10658 10654 10651 10647 10644 10639 10634 10628 10624 10619 10614 10608 10604 10599 10593 10584 10576 10569 10560 10552 10544 10535 10525 10510 10493 10483 10475 10459 10448 10440 10430 10424 10419
10678 10677 10676 10675 10674 10673 10671 10666 10662 10660 10658 10653 10650 10647 10642 10639 10635 10631 10626 10620 10615 10610 10605 10599 10593 10587 10580 10572 10563 10555 10545 10534 10526 10514 10499 10484 10462 10453 10430 10416 10405 10396 10389 10381 10374
10666 10665 10665 10664 10663 10661 10660 10657 10653 10651 10648 10644 10640 10638 10634 10631 10627 10623 10618 10612 10606 10601 10595 10589 10583 10575 10568 10560 10550 10542 10530 10517 10506 10492 10473 10458 10439 10421 10398 10378 10365 10357 10345 10334 10328
10653 10652 10652 10652 10651 10649 10648 10645 10643 10640 10638 10634 10631 10628 10624 10621 10618 10614 10609 10604 10598 10592 10587 10581 10573 10564 10556 10548 10537 10526 10515 10500 10488 10474 10452 10435 10414 10397 10370 10347 10332 10319 10306 10298 10292
10638 10638 10638 10639 10637 10638 10636 10634 10631 10629 10626 10624 10621 10619 10614 10612 10609 10605 10600 10595 10589 10583 10578 10572 10565 10556 10546 10536 10528 10516 10504 10485 10468 10454 10431 10412 10396 10372 10347 10323 10304 10292 10281 10271 10264
10623 10623 10625 10625 10624 10623 10624 10621 10620 10618 10615 10613 10611 10608 10604 10601 10598 10595 10591 10586 10580 10575 10569 10563 10555 10547 10538 10525 10514 10501 10486 10473 10452 10435 10416 10395 10377 10354 10329 10303 10283 10272 10260 10250 10241
10608 10609 10610 10610 10609 10608 10610 10607 10606 10607 10603 10600 10599 10597 10594 10592 10588 10586 10582 10577 10571 10565 10559 10553 10545 10536 10528 10515 10501 10490 10474 10457 10437 10421 10405 10382 10360 10336 10313 10288 10267 10254 10244 10232 10224
10591 10592 10594 10594 10593 10594 10594 10593 10593 10593 10593 10587 10586 10585 10583 10581 10578 10575 10572 10567 10562 10556 10549 10543 10536 10528 10517 10504 10492 10475 10461 10443 10426 10410 10391 10376 10352 10327 10304 10279 10258 10240 10230 10220 10211
10572 10574 10576 10577 10577 10577 10579 10578 10578 10579 10581 10578 10575 10574 10572 10570 10568 10565 10562 10558 10553 10548 10540 10534 10526 10518 10509 10496 10483 10468 10450 10432 10415 10398 10381 10365 10343 10318 10297 10274 10251 10234 10220 10211 10202
10552 10554 10556 10559 10560 10562 10564 10563 10565 10565 10569 10567 10565 10563 10562 10560 10559 10555 10553 10549 10544 10539 10533 10526 10518 10508 10499 10487 10472 10458 10443 10424 10406 10390 10375 10359 10340 10315 10290 10269 10248 10229 10215 10204 10195
10532 10534 10536 10541 10544 10546 10548 10549 10550 10551 10554 10555 10554 10552 10551 10550 10549 10547 10543 10540 10536 10530 10524 10517 10509 10499 10490 10478 10463 10451 10434 10417 10399 10385 10371 10355 10334 10313 10288 10265 10243 10227 10211 10200 10191
10512 10514 10517 10521 10525 10528 10530 10533 10535 10536 10539 10541 10541 10541 10539 10540 10539 10537 10534 10531 10527 10522 10516 10509 10501 10492 10482 10471 10456 10442 10427 10413 10398 10380 10364 10349 10331 10309 10286 10264 10242 10224 10209 10199 10189
10486 10490 10493 10498 10503 10506 10510 10513 10518 10523 10524 10525 10528 10528 10527 10529 10529 10528 10526 10523 10519 10514 10510 10502 10495 10486 10476 10464 10452 10438 10420 10404 10390 10376 10359 10343 10327 10308 10286 10265 10244 10225 10210 10198 10190
10461 10464 10469 10474 10480 10484 10489 10493 10502 10505 10509 10511 10513 10515 10516 10518 10519 10519 10517 10514 10511 10507 10502 10496 10488 10481 10470 10457 10446 10433 10416 10402 10389 10375 10359 10344 10328 10310 10286 10266 10247 10227 10212 10201 10193
10438 10442 10444 10451 10458 10465 10468 10474 10482 10486 10491 10494 10499 10502 10504 10507 10508 10509 10507 10506 10503 10499 10495 10489 10483 10474 10464 10453 10440 10426 10412 10399 10386 10372 10359 10341 10325 10307 10288 10269 10251 10231 10216 10204 10197
10420 10420 10420 10426 10435 10443 10448 10456 10463 10468 10472 10477 10485 10489 10492 10496 10498 10499 10498 10498 10495 10492 10488 10483 10476 10467 10459 10448 10437 10423 10407 10394 10380 10365 10356 10342 10326 10309 10290 10273 10256 10235 10221 10208 10202
10407 10405 10404 10407 10415 10421 10429 10437 10444 10450 10453 10462 10470 10476 10481 10485 10487 10489 10489 10490 10487 10485 10481 10476 10470 10461 10453 10443 10431 10417 10402 10390 10379 10365 10354 10342 10328 10312 10294 10277 10262 10243 10226 10215 10209
10397 10395 10396 10396 10399 10404 10411 10419 10426 10433 10438 10448 10457 10463 10469 10473 10477 10480 10481 10481 10480 10478 10475 10470 10465 10457 10448 10437 10426 10413 10398 10387 10376 10363 10352 10343 10331 10316 10301 10285 10271 10252 10236 10225 10217
10389 10388 10389 10388 10387 10390 10396 10402 10410 10417 10424 10436 10444 10450 10456 10462 10467 10470 10472 10472 10472 10472 10469 10465 10459 10452 10445 10436 10426 10412 10397 10386 10375 10363 10352 10342 10331 10320 10307 10293 10279 10263 10249 10235 10228
10378 10380 10380 10380 10380 10381 10384 10389 10395 10403 10412 10423 10430 10438 10445 10451 10457 10460 10463 10465 10465 10465 10463 10460 10454 10447 10441 10432 10423 10410 10396 10385 10374 10363 10353 10344 10334 10324 10312 10301 10289 10277 10263 10249 10241
10368 10372 10371 10371 10373 10374 10375 10378 10384 10390 10400 10410 10418 10426 10434 10441 10448 10452 10454 10456 10457 10458 10457 10454 10449 10443 10437 10429 10420 10408 10396 10384 10373 10363 10354 10345 10336 10328 10317 10308 10299 10290 10278 10266 10257
10354 10359 10362 10362 10364 10366 10367 10369 10374 10381 10390 10399 10408 10415 10423 10432 10437 10442 10446 10448 10449 10452 10451 10449 10444 10439 10434 10427 10418 10408 10396 10383 10374 10365 10355 10346 10339 10331 10321 10315 10308 10300 10293 10285 10274